This demonstration page uses our WeatherBlox Daily Observations layout. Learn more.

Left ArrowRight Arrow

36.17497, -115.13722

Hourly Observations for April 27, 2020

Temp ( °F °C ) Dew Point ( °F °C ) Humidity (%) Winds ( mph kmh ) Pressure ( in mb ) Visibility ( mi km ) Precip ( " mm )
12:53 am 00:53 Clear 79 26.1 32 undefined 18 18 WSW 3 6 29.84 1010 10 16 N/A
1:53 am 01:53 Clear 73 22.8 32 undefined 22 22 N 8 13 29.84 1011 10 16 N/A
2:53 am 02:53 Clear 70 21.1 32 undefined 25 25 WNW 3 6 29.85 1011 10 16 N/A
3:53 am 03:53 Clear 68 20 32 undefined 26 26 NNW 7 11 29.86 1011 10 16 N/A
4:53 am 04:53 Clear 66 18.9 35 1.7 32 32 NNW 3 6 29.86 1011 10 16 N/A
5:53 am 05:53 Sunny 64 17.8 35 1.7 34 34 NW 7 11 29.87 1012 10 16 N/A
6:53 am 06:53 Sunny 71 21.7 31 -0.6 23 23 NNW 10 17 29.89 1012 10 16 N/A
7:53 am 07:53 Sunny 74 23.3 32 undefined 21 21 NNE 6 9 29.90 1013 10 16 N/A
8:53 am 08:53 Sunny 80 26.7 34 1.1 19 19 N 5 7 29.91 1013 10 16 N/A
9:53 am 09:53 Sunny 85 29.4 32 undefined 15 15 NW 12 19 29.91 1013 10 16 N/A
10:53 am 10:53 Sunny 87 30.6 32 undefined 14 14 NNE 6 9 29.92 1013 10 16 N/A
11:53 am 11:53 Sunny 88 31.1 32 undefined 13 13 E 8 13 29.91 1013 10 16 N/A
12:53 pm 12:53 Sunny 90 32.2 30 -1.1 12 12 VRB 6 9 29.90 1012 10 16 N/A
1:53 pm 13:53 Sunny 91 32.8 26 -3.3 9 9 VRB 3 6 29.89 1012 10 16 N/A
2:53 pm 14:53 Sunny 93 33.9 26 -3.3 9 9 NNE 3 6 29.88 1012 10 16 N/A
3:53 pm 15:53 Sunny 94 34.4 29 -1.7 10 10 S 13 20 29.86 1011 10 16 N/A
4:53 pm 16:53 Sunny 94 34.4 30 -1.1 10 10 SSW 3 6 29.86 1011 10 16 N/A
5:53 pm 17:53 Sunny 94 34.4 26 -3.3 9 9 SSW 8 13 29.85 1011 10 16 N/A
6:53 pm 18:53 Sunny 93 33.9 28 -2.2 10 10 SW 6 9 29.85 1011 10 16 N/A
7:53 pm 19:53 Clear 91 32.8 31 -0.6 12 12 N N/A 29.85 1011 10 16 N/A
8:53 pm 20:53 Clear 88 31.1 31 -0.6 13 13 N 3 6 29.87 1011 10 16 N/A
9:53 pm 21:53 Clear 85 29.4 29 -1.7 13 13 NNW 8 13 29.88 1012 10 16 N/A
10:53 pm 22:53 Clear 81 27.2 31 -0.6 16 16 N N/A 29.89 1012 10 16 N/A
11:53 pm 23:53 Clear 81 27.2 32 undefined 17 17 W 6 9 29.90 1012 10 16 N/A

Powered by AerisWeather